[[{"header":{"parameterUnit":"m.s-1","parameterCategory":1,"la1":30.2992,"la2":30.254,"lo1":-89.0895,"lo2":-89.0443,"dy":0.0025,"dx":0.0025,"nx":19,"ny":19,"refTime":"2026-05-04T21:00:00:Z","depth":0,"parameterNumber":2,"parameterNumberName":"U-component_of_WINDS"},"data":[0,0,0,-0.6142,-0.6143,-0.6202,-0.6202,-0.6265,-0.6265,0,0,0,0,0,0,0,0,0,0,0,-0.6115,-0.6115,-0.6142,-0.6143,-0.6202,-0.6202,-0.6265,-0.6265,0,0,0,0,0,0,0,0,0,0,0,-0.6115,-0.6115,-0.6116,-0.6143,-0.6202,-0.6202,-0.6264,-0.6225,0,0,0,0,0,0,0,0,0,0,-0.617,-0.6136,-0.6115,-0.6116,-0.6143,-0.6201,-0.6202,-0.6223,-0.6227,-0.6232,0,-0.6233,0,-0.625,-0.6268,-0.6268,0,0,0,-0.615,-0.6133,-0.6157,-0.6116,-0.6144,-0.6201,-0.6177,-0.6226,-0.623,-0.6238,-0.6234,-0.6237,-0.6251,-0.6269,-0.6269,-0.6272,-0.6272,0,0,-0.6147,-0.6121,-0.6154,-0.6159,-0.6148,-0.6175,-0.6179,-0.6229,-0.6223,-0.6234,-0.6238,-0.6252,-0.6269,-0.6269,-0.6273,-0.6272,0,0,0,-0.6133,-0.6118,-0.6142,-0.6156,-0.6168,-0.6177,-0.6181,-0.6221,-0.6231,-0.6239,-0.6253,-0.6269,-0.627,-0.6273,-0.6272,-0.6232,0,0,0,-0.6131,-0.611,-0.614,-0.6125,-0.6167,-0.6195,-0.6172,-0.6227,-0.6234,-0.6252,-0.6269,-0.627,-0.6273,-0.6273,-0.6234,-0.6216,0,0,0,-0.6115,-0.6109,-0.6114,-0.6123,-0.6148,-0.6195,-0.6208,-0.6229,-0.6242,-0.6269,-0.627,-0.6274,-0.6273,-0.6235,-0.6219,-0.621,0,0,0,-0.609,-0.6077,-0.6113,-0.6104,-0.6147,-0.6169,-0.6207,-0.6225,-0.6244,-0.6269,-0.6273,-0.6273,-0.6236,-0.6221,-0.6212,-0.6197,-0.6189,0,0,-0.6059,-0.6072,-0.6069,-0.6103,-0.6112,-0.6162,-0.6166,-0.6207,-0.6234,-0.6258,-0.6259,-0.6233,-0.622,-0.621,-0.6152,-0.6145,0,0,0,-0.605,-0.6048,-0.6056,-0.6072,-0.6103,-0.6129,-0.6172,-0.6188,-0.621,-0.6241,-0.6229,-0.6221,-0.6217,-0.6211,-0.6205,-0.6203,-0.6269,-0.6269,-0.6269,-0.5969,-0.6004,-0.6001,-0.6044,-0.6059,-0.6105,-0.6121,-0.6151,-0.6181,-0.6178,-0.6185,-0.6145,-0.6137,-0.6133,-0.613,-0.6181,-0.6181,-0.618,-0.618,-0.5926,-0.5928,-0.5971,-0.5983,-0.6021,-0.6033,-0.6078,-0.6099,-0.6116,-0.6142,-0.614,-0.6164,-0.6124,-0.6124,-0.6178,-0.6178,-0.6178,-0.6179,-0.6179,-0.5876,-0.5883,-0.5903,-0.5931,-0.5949,-0.5994,-0.6009,-0.6043,-0.6076,-0.6074,-0.6086,-0.6086,-0.6091,-0.6077,-0.6077,-0.6077,-0.6077,-0.6077,-0.6077,-0.5815,-0.5839,-0.5847,-0.588,-0.5896,-0.5922,-0.597,-0.5987,-0.6015,-0.6039,-0.604,-0.6071,-0.6114,-0.6123,-0.6075,-0.6075,-0.6075,-0.6076,-0.6076,-0.5757,-0.5777,-0.5788,-0.5804,-0.5848,-0.5865,-0.5909,-0.5942,-0.5961,-0.5968,-0.6001,-0.6027,-0.6043,-0.6048,-0.6056,-0.5993,-0.5993,-0.5993,-0.5993,-0.5714,-0.5726,-0.5747,-0.577,-0.5798,-0.584,-0.5854,-0.5893,-0.5936,-0.5951,-0.5965,-0.598,-0.5983,-0.5997,-0.6003,-0.6011,-0.5938,-0.5938,-0.5938,-0.5681,-0.5697,-0.5701,-0.5743,-0.5781,-0.5813,-0.5828,-0.5855,-0.5908,-0.5936,-0.5963,-0.5965,-0.5989,-0.5995,-0.6021,-0.603,-0.6046,0,0]},{"header":{"parameterUnit":"m.s-1","parameterCategory":1,"la1":30.2992,"la2":30.254,"lo1":-89.0895,"lo2":-89.0443,"dy":0.0025,"dx":0.0025,"nx":19,"ny":19,"refTime":"2026-05-04T21:00:00:Z","depth":0,"parameterNumber":3,"parameterNumberName":"V-component_of_WINDS"},"data":[0,0,0,6.8874,6.8875,6.888,6.888,6.8893,6.8893,0,0,0,0,0,0,0,0,0,0,0,6.8877,6.8877,6.8874,6.8875,6.888,6.888,6.8893,6.8893,0,0,0,0,0,0,0,0,0,0,0,6.8877,6.8877,6.8878,6.8875,6.888,6.888,6.8893,6.8887,0,0,0,0,0,0,0,0,0,0,6.888,6.8887,6.8877,6.8878,6.8875,6.888,6.888,6.8886,6.8887,6.8894,0,6.8901,0,6.8898,6.8895,6.8895,0,0,0,6.8871,6.8886,6.8884,6.8878,6.8875,6.888,6.8877,6.8887,6.8888,6.8895,6.8901,6.8902,6.8898,6.8895,6.8895,6.8946,6.8947,0,0,6.8871,6.888,6.8884,6.8885,6.8885,6.8876,6.8877,6.8887,6.8894,6.8901,6.8902,6.8898,6.8895,6.8895,6.8946,6.8947,0,0,0,6.8872,6.888,6.8877,6.8885,6.8885,6.8877,6.8877,6.8894,6.8892,6.8902,6.8898,6.8895,6.8895,6.8946,6.8946,6.8975,0,0,0,6.8872,6.8881,6.8877,6.8883,6.8885,6.889,6.8884,6.8892,6.8892,6.8898,6.8895,6.8896,6.8945,6.8946,6.8973,6.8987,0,0,0,6.8875,6.8881,6.8883,6.8883,6.8886,6.8889,6.8888,6.8892,6.889,6.8895,6.8896,6.8945,6.8946,6.8972,6.8984,6.9003,0,0,0,6.8881,6.8908,6.8884,6.8913,6.8886,6.8907,6.8888,6.8903,6.891,6.8895,6.8945,6.8946,6.8971,6.8982,6.9002,6.9021,6.903,0,0,6.892,6.8913,6.893,6.8908,6.8936,6.8906,6.8938,6.8935,6.8927,6.894,6.8942,6.8974,6.8984,6.9003,6.9077,6.9084,0,0,0,6.8945,6.8957,6.8962,6.897,6.897,6.8971,6.8963,6.8962,6.8973,6.8936,6.8986,6.8991,6.9002,6.9011,6.9017,6.9026,6.8951,6.8951,6.895,6.9012,6.9002,6.9028,6.9019,6.9027,6.9019,6.9024,6.9022,6.9008,6.902,6.9024,6.907,6.9081,6.9085,6.9094,6.9033,6.9033,6.9034,6.9034,6.9068,6.9084,6.9066,6.9086,6.9074,6.909,6.9085,6.9074,6.9088,6.9066,6.9075,6.9052,6.9093,6.9101,6.9036,6.9035,6.9035,6.9035,6.9035,6.9111,6.9116,6.9116,6.9128,6.9138,6.9127,6.9141,6.913,6.912,6.9129,6.9132,6.9131,6.9129,6.9131,6.9131,6.9131,6.9132,6.9132,6.9132,6.9155,6.9154,6.9167,6.9171,6.9175,6.918,6.9174,6.9178,6.9179,6.917,6.917,6.9155,6.91,6.9086,6.9134,6.9134,6.9133,6.9133,6.9133,6.9214,6.92,6.9221,6.9225,6.9229,6.9241,6.9227,6.9236,6.9238,6.9246,6.9229,6.9191,6.9182,6.9177,6.9166,6.9232,6.9232,6.9232,6.9232,6.925,6.9245,6.9265,6.9274,6.928,6.9271,6.9296,6.9292,6.9286,6.9286,6.9275,6.9259,6.9255,6.9249,6.9243,6.9232,6.9313,6.9313,6.9313,6.9286,6.9282,6.9305,6.93,6.9302,6.9305,6.9328,6.9338,6.9328,6.9316,6.9286,6.9283,6.9257,6.9249,6.9235,6.9225,6.9205,0,0]}]]